Weather observations for the past three days for
Kleberg County Airport
Imperial (Metric)
Date Time (cdt) Wind (mph) Vis. (mi.) Weather Sky Cond. Temperature (ºF) Relative Humidity Wind Chill (°F) Heat Index (°F) Pressure Precipitation (in)
Air Dwpt 6 hour altimeter (in) sea level (mb) 1 hr 3 hr 6 hr
Max. Min.
15 21:15 E 12 10.00 Fair CLR 84.2 72.7 68% 90 29.83 0.0
15 20:55 E 9 10.00 Fair CLR 84.7 73.6 69% 92 29.82 0.0
15 20:35 E 12 G 17 10.00 Fair CLR 85.6 73.6 67% 93 29.82 0.0
15 20:15 E 13 10.00 Fair CLR 86.5 73.4 65% 94 29.82 0.0
15 19:55 E 13 10.00 Fair CLR 87.8 72.5 61% 95 29.81 0.0
15 19:35 E 14 10.00 Fair CLR 88.9 73.6 61% 97 29.81 0.0
15 19:15 E 17 G 23 10.00 Fair CLR 90.1 73 57% 98 29.8 0.0
15 18:55 E 14 G 21 10.00 Fair CLR 91.4 72 98.4 91.4 53% 99 29.8 0.0
15 18:35 E 13 G 24 10.00 Fair CLR 92.5 72 51% 100 29.8 0.0
15 18:15 E 17 G 21 10.00 Partly Cloudy SCT049 93.4 71.8 50% 101 29.8 0.0
15 17:55 E 14 G 22 10.00 Fair CLR 94.8 72 48% 103 29.8 0.0
15 17:35 E 18 G 23 10.00 Fair CLR 95.5 69.3 42% 101 29.79 0.0
15 17:15 E 15 G 22 10.00 Fair CLR 95.9 68.5 41% 101 29.8 0.0
15 16:55 E 17 G 24 10.00 Fair CLR 96.4 68.9 41% 102 29.8 0.0
15 16:35 E 14 G 22 10.00 Partly Cloudy SCT060 96.6 68.9 41% 102 29.81 0.0
15 16:15 E 12 G 22 10.00 Mostly Cloudy BKN060 96.4 69.8 42% 103 29.81 0.0
15 15:55 E 14 G 23 10.00 Partly Cloudy SCT060 SCT070 96.6 69.6 42% 103 29.82 0.0
15 15:35 E 16 G 21 10.00 Partly Cloudy SCT065 SCT070 96.8 69.8 42% 103 29.82 0.0
15 15:15 E 17 G 26 10.00 Partly Cloudy SCT065 SCT090 97.9 70.5 41% 106 29.83 0.0
15 14:55 E 13 G 20 10.00 Partly Cloudy SCT065 SCT090 97.7 69.4 40% 104 29.83 0.0
15 14:35 SE 15 G 20 10.00 Partly Cloudy SCT060 97.9 70.2 41% 105 29.84 0.0
15 14:15 E 13 G 20 10.00 Partly Cloudy SCT050 SCT075 SCT085 97.5 71.1 42% 106 29.84 0.0
15 13:55 E 9 G 18 10.00 Overcast BKN050 OVC070 96.1 71.2 45% 104 29.85 0.0
15 13:35 E 8 10.00 Mostly Cloudy BKN050 BKN060 BKN100 95.2 71.2 46% 103 29.86 0.0
15 13:15 E 12 G 17 10.00 Mostly Cloudy BKN050 BKN060 BKN080 95.4 72.3 47% 104 29.87 0.0
15 12:55 Calm 10.00 Overcast SCT048 BKN050 OVC090 93.4 72.1 93.7 75.2 50% 102 29.88 0.0
15 12:35 Calm 10.00 Mostly Cloudy SCT048 SCT060 BKN070 92.5 71.1 50% 99 29.89 0.0
15 12:15 Calm 10.00 Fair CLR 93.4 71.6 49% 101 29.89 0.0
15 11:55 Calm 10.00 Partly Cloudy SCT041 SCT050 SCT060 91.8 72.3 53% 100 29.9 0.0
15 11:35 SE 6 10.00 Mostly Cloudy BKN041 BKN050 BKN060 91.4 72 53% 99 29.9 0.0
15 11:15 SE 7 10.00 Mostly Cloudy SCT036 SCT044 BKN050 89.8 72.7 57% 98 29.91 0.0
15 10:55 SE 3 10.00 Partly Cloudy SCT034 SCT045 SCT070 90 73.4 58% 99 29.91 0.0
15 10:35 Calm 10.00 Partly Cloudy SCT030 SCT041 SCT047 90.1 73.4 58% 99 29.91 0.0
15 10:15 E 6 10.00 Partly Cloudy SCT028 SCT041 SCT047 88.9 74.3 62% 98 29.91 0.0
15 09:55 SE 7 10.00 Mostly Cloudy SCT024 BKN034 87.4 74.8 66% 97 29.92 0.0
15 09:35 SE 3 10.00 Mostly Cloudy SCT019 BKN029 BKN034 85.5 75.4 72% 95 29.92 0.0
15 09:15 S 3 10.00 Mostly Cloudy BKN019 BKN029 85.1 76.1 75% 95 29.92 0.0
15 08:55 Calm 10.00 Partly Cloudy SCT017 84.6 76.3 76% 94 29.91 0.0
15 08:35 Calm 10.00 Fair CLR 82.6 75.7 80% 90 29.91 0.0
15 08:15 Calm 10.00 Partly Cloudy SCT024 SCT037 SCT050 80.4 75.2 84% 86 29.91 0.0
15 07:55 Calm 10.00 Mostly Cloudy SCT024 BKN035 BKN042 77.9 74.3 89% 80 29.91 0.0
15 07:35 Calm 10.00 Mostly Cloudy BKN020 BKN025 BKN030 77.2 73.9 90% 79 29.9 0.0
15 07:15 Calm 10.00 Mostly Cloudy BKN020 76.1 73.4 91% 76 29.89 0.0
15 06:55 Calm 10.00 Mostly Cloudy BKN020 BKN026 BKN031 75.2 72.9 78.3 74.7 92% 74 29.89 0.0
15 06:35 Calm 10.00 Mostly Cloudy BKN018 BKN024 BKN033 75.4 72.9 92% 75 29.89 0.0
15 06:15 Calm 10.00 Mostly Cloudy SCT020 BKN028 74.8 72.5 92% 29.88 0.0
15 05:55 Calm 10.00 Fair CLR 74.7 72.5 93% 29.88 0.0
15 05:35 Calm 10.00 Fair CLR 76.1 73.4 91% 76 29.88 0.0
15 05:15 Calm 10.00 Fair CLR 76.1 73.4 91% 76 29.88 0.0
15 04:55 Calm 10.00 Fair CLR 76.1 73.4 91% 76 29.88 0.0
15 04:35 Calm 10.00 Fair CLR 77.2 73.8 89% 79 29.88 0.0
15 04:15 Calm 10.00 Fair CLR 77.2 73.6 89% 79 29.88 0.0
15 03:55 Calm 10.00 Fair CLR 77.4 73.6 88% 79 29.88 0.0
15 03:35 Calm 10.00 Fair CLR 77 73.4 89% 78 29.89 0.0
15 03:15 Calm 10.00 Fair CLR 76.5 72.7 88% 77 29.89 0.0
15 02:55 Calm 10.00 Partly Cloudy SCT021 77 73.4 89% 78 29.89 0.0
15 02:35 Calm 10.00 Fair CLR 77 73 88% 78 29.9 0.0
15 02:15 Calm 10.00 Fair CLR 77.2 73 87% 79 29.91 0.0
15 01:55 Calm 10.00 Fair CLR 77.5 73 86% 79 29.91 0.0
15 01:35 Calm 10.00 Fair CLR 77.9 73 85% 80 29.92 0.0
15 01:15 Calm 10.00 Fair CLR 78.1 73.2 85% 81 29.92 0.0
15 00:55 Calm 10.00 Fair CLR 78.1 73.4 92.7 77.9 86% 81 29.92 0.0
15 00:35 Calm 10.00 Fair CLR 78.1 73.2 85% 81 29.92 0.0
15 00:15 Calm 10.00 Fair CLR 79.2 73.6 83% 83 29.92 0.0
14 23:55 Calm 10.00 Fair CLR 80.6 73.9 80% 86 29.92 0.0
14 23:35 E 3 10.00 Fair CLR 80.8 74.1 80% 86 29.91 0.0
14 23:15 E 3 10.00 Fair CLR 81.5 73.9 78% 87 29.91 0.0
14 22:55 E 5 10.00 Fair CLR 82.4 73.9 76% 89 29.9 0.0
14 22:35 E 5 10.00 Fair CLR 82.6 73.6 74% 89 29.9 0.0
14 22:15 E 6 10.00 Fair CLR 83.3 73.6 73% 90 29.9 0.0
14 21:55 E 7 10.00 Fair CLR 83.7 73.8 72% 90 29.89 0.0
14 21:35 E 8 10.00 Fair CLR 84.4 73.6 70% 91 29.88 0.0
14 21:15 E 10 10.00 Fair CLR 85.1 73.9 69% 93 29.88 0.0
14 20:55 E 12 10.00 Fair CLR 85.8 73.6 67% 93 29.87 0.0
14 20:35 E 10 10.00 Fair CLR 86.7 72.1 62% 93 29.87 0.0
14 20:15 E 12 10.00 Fair CLR 87.8 71.4 58% 94 29.86 0.0
14 19:55 E 14 10.00 Fair CLR 89.2 71.8 56% 96 29.86 0.0
14 19:35 E 13 10.00 Fair CLR 90.7 70.5 52% 97 29.86 0.0
14 19:15 E 15 10.00 Fair CLR 91.9 70.9 50% 99 29.85 0.0
14 18:55 E 13 G 20 10.00 Fair CLR 92.7 70.7 99.5 92.7 49% 99 29.85 0.0
14 18:35 E 15 G 18 10.00 Fair CLR 94.5 70.2 45% 101 29.84 0.0
14 18:15 E 14 G 18 10.00 Fair CLR 95 69.4 43% 101 29.83 0.0
14 17:55 E 15 G 21 10.00 Fair CLR 95.7 69.1 42% 102 29.83 0.0
14 17:35 E 13 G 17 10.00 Partly Cloudy SCT060 96.6 68.9 41% 102 29.83 0.0
14 17:15 E 12 G 17 10.00 Partly Cloudy SCT060 97.2 70 41% 104 29.84 0.0
14 16:55 E 12 10.00 Fair CLR 95 70.7 45% 102 29.83 0.0
14 16:35 E 13 G 20 10.00 Partly Cloudy SCT055 SCT065 97.5 71.2 43% 106 29.84 0.0
14 16:15 E 13 G 18 10.00 Partly Cloudy SCT070 97.7 71.2 42% 106 29.84 0.0
14 15:55 E 15 G 21 10.00 Partly Cloudy SCT055 SCT070 98.1 71.6 43% 107 29.85 0.0
14 15:35 E 14 G 20 10.00 Partly Cloudy SCT055 SCT065 SCT090 96.4 71.6 45% 105 29.85 0.0
14 15:15 E 9 G 20 10.00 Partly Cloudy SCT055 SCT065 SCT090 97.9 70.7 41% 106 29.86 0.0
14 14:55 E 14 G 17 10.00 Mostly Cloudy SCT055 SCT065 BKN080 97.7 70.7 42% 105 29.86 0.0
14 14:35 E 14 G 20 10.00 Partly Cloudy SCT050 SCT070 SCT090 98.4 71.4 42% 107 29.87 0.0
14 14:15 NE 8 10.00 Mostly Cloudy SCT050 BKN070 BKN090 97.9 71.6 43% 107 29.88 0.0
14 13:55 E 3 10.00 Mostly Cloudy BKN050 BKN080 94.8 71.1 46% 102 29.88 0.0
14 13:35 E 8 10.00 Mostly Cloudy SCT050 BKN080 97 71.8 44% 106 29.89 0.0
14 13:15 NE 7 10.00 Mostly Cloudy BKN050 BKN080 94.1 71.6 48% 102 29.89 0.0
14 12:55 Calm 10.00 Overcast BKN060 BKN070 OVC075 92.5 71.2 94.1 73.9 50% 100 29.9 0.0
14 12:35 Calm 10.00 Partly Cloudy SCT049 SCT060 SCT070 92.5 71.4 50% 100 29.9 0.0
14 12:15 Calm 10.00 Partly Cloudy SCT070 SCT080 93 71.4 49% 100 29.9 0.0
14 11:55 E 5 10.00 Partly Cloudy SCT044 SCT050 SCT075 91.4 71.6 52% 99 29.91 0.0
14 11:35 N 3 10.00 Partly Cloudy SCT041 SCT050 91 72.7 55% 99 29.92 0.0
14 11:15 E 6 10.00 Partly Cloudy SCT039 91.2 72.7 55% 99 29.92 0.0
14 10:55 Calm 10.00 Fair CLR 90.1 72.5 56% 98 29.93 0.0
14 10:35 E 6 10.00 Partly Cloudy SCT031 SCT043 88.5 74.3 63% 98 29.93 0.0
14 10:15 Calm 10.00 Partly Cloudy SCT031 SCT042 88.5 74.7 64% 98 29.95 0.0
14 09:55 Calm 10.00 Mostly Cloudy SCT024 SCT036 BKN044 85.8 75 70% 95 29.95 0.0
14 09:35 Calm 10.00 Mostly Cloudy SCT022 SCT030 BKN035 86.5 74.7 68% 95 29.95 0.0
14 09:15 SE 3 10.00 Mostly Cloudy BKN020 BKN031 85.8 75.6 72% 95 29.95 0.0
14 08:55 Calm 10.00 Mostly Cloudy SCT020 BKN026 85.3 75.7 73% 95 29.94 0.0
14 08:35 Calm 10.00 Partly Cloudy SCT024 84.2 76.1 77% 93 29.94 0.0
14 08:15 Calm 7.00 Partly Cloudy SCT022 82.4 75.6 80% 90 29.93 0.0
14 07:55 Calm 10.00 Fair CLR 79.7 75.2 86% 84 29.93 0.0
14 07:35 Calm 10.00 Partly Cloudy SCT023 77.2 73.9 90% 79 29.93 0.0
14 07:15 Calm 10.00 Partly Cloudy SCT023 76.1 73.4 91% 76 29.92 0.0
14 06:55 Calm 10.00 Fair CLR 73.9 72 80.6 73.9 94% 29.91 0.0
14 06:35 Calm 10.00 Partly Cloudy SCT021 74.3 72.1 93% 29.91 0.0
14 06:15 Calm 10.00 Fair CLR 74.8 72.5 92% 29.91 0.0
14 05:55 Calm 10.00 Fair CLR 75.2 72.9 92% 74 29.9 0.0
14 05:35 Calm 10.00 Fair CLR 75.2 72.7 92% 74 29.9 0.0
14 05:15 Calm 10.00 Fair CLR 75.4 72.9 92% 75 29.9 0.0
14 04:55 Calm 10.00 Fair CLR 75.4 72.7 91% 75 29.89 0.0
14 04:35 Calm 10.00 Fair CLR 75.6 72.9 91% 75 29.89 0.0
14 04:15 Calm 10.00 Fair CLR 75.9 72.9 90% 76 29.89 0.0
14 03:55 Calm 10.00 Fair CLR 75.4 72.7 91% 75 29.9 0.0
14 03:35 Calm 10.00 Fair CLR 75.7 72.7 90% 75 29.89 0.0
14 03:15 Calm 10.00 Fair CLR 77 73.6 89% 78 29.9 0.0
14 02:55 Calm 10.00 Fair CLR 76.8 73.6 90% 78 29.9 0.0
14 02:35 Calm 10.00 Fair CLR 77.4 73.6 88% 79 29.9 0.0
14 02:15 Calm 10.00 Fair CLR 77.5 73.8 88% 79 29.9 0.0
14 01:55 Calm 10.00 Fair CLR 78.1 73.8 87% 81 29.9 0.0
14 01:35 Calm 10.00 Fair CLR 79.2 74.3 85% 83 29.9 0.0
14 01:15 Calm 10.00 Fair CLR 79.9 74.3 83% 84 29.9 0.0
14 00:55 Calm 10.00 Partly Cloudy SCT024 80.6 74.3 94.1 80.6 81% 86 29.9 0.0
14 00:35 Calm 10.00 Partly Cloudy SCT024 80.8 74.3 81% 86 29.9 0.0
14 00:15 Calm 10.00 Partly Cloudy SCT024 81.3 74.3 79% 87 29.91 0.0
13 23:55 Calm 10.00 Fair CLR 81.7 74.3 78% 88 29.91 0.0
13 23:35 E 3 10.00 Fair CLR 82.2 74.5 78% 89 29.9 0.0
13 23:15 E 6 10.00 Fair CLR 82.6 74.3 76% 89 29.9 0.0
13 22:55 E 6 10.00 Fair CLR 83.3 74.3 74% 90 29.9 0.0
13 22:35 E 7 10.00 Fair CLR 83.5 74.3 74% 91 29.9 0.0
13 22:15 E 8 10.00 Fair CLR 84.2 74.3 72% 92 29.89 0.0
13 21:55 E 10 10.00 Fair CLR 84.6 74.7 72% 93 29.89 0.0
13 21:35 E 13 10.00 Fair CLR 85.1 75.2 72% 94 29.88 0.0
13 21:15 E 12 10.00 Fair CLR 85.8 74.8 70% 95 29.88 0.0
13 20:55 E 9 10.00 Fair CLR 86.5 74.3 67% 95 29.87 0.0
13 20:35 E 12 10.00 Fair CLR 87.6 73.2 62% 95 29.87 0.0
13 20:15 E 13 G 17 10.00 Fair CLR 88.7 72.7 59% 96 29.87 0.0
13 19:55 E 13 G 17 10.00 Fair CLR 90.3 72.3 56% 98 29.86 0.0
13 19:35 E 14 10.00 Fair CLR 91.9 72.7 53% 100 29.85 0.0
13 19:15 E 13 G 18 10.00 Fair CLR 93.6 72.5 50% 102 29.84 0.0
13 18:55 E 12 G 16 10.00 Fair CLR 93.6 73.4 99.7 93.6 52% 103 29.83 0.0
13 18:35 E 10 G 16 10.00 Partly Cloudy SCT050 SCT060 94.3 73.6 51% 104 29.83 0.0
13 18:15 NE 13 G 21 10.00 Mostly Cloudy BKN060 96.6 74.1 48% 108 29.83 0.0
13 17:55 E 10 G 16 10.00 Partly Cloudy SCT060 97.2 72.5 45% 107 29.83 0.0
13 17:35 E 9 10.00 Partly Cloudy SCT060 98.1 72.1 43% 107 29.83 0.0
13 17:15 E 10 10.00 Partly Cloudy SCT060 SCT070 97.5 72 44% 107 29.83 0.0
13 16:55 E 10 10.00 Mostly Cloudy SCT060 BKN070 97.5 72 44% 107 29.83 0.0
13 16:35 E 8 10.00 Mostly Cloudy SCT060 BKN070 98.6 71.4 42% 107 29.84 0.0
13 16:15 E 7 10.00 Mostly Cloudy SCT060 BKN070 97 72.1 45% 106 29.84 0.0
13 15:55 E 10 G 16 10.00 Partly Cloudy SCT060 99.1 72.9 43% 110 29.85 0.0
13 15:35 NE 3 G 16 10.00 Mostly Cloudy BKN065 BKN120 97.9 71.6 43% 107 29.85 0.0
13 15:15 E 10 G 16 10.00 Mostly Cloudy SCT065 SCT085 BKN110 98.6 72.3 43% 108 29.86 0.0
13 14:55 E 12 10.00 Overcast SCT065 BKN075 OVC110 98.1 70.3 41% 106 29.86 0.0
13 14:35 E 8 10.00 Mostly Cloudy BKN060 BKN075 BKN100 96.6 70 42% 103 29.87 0.0
13 14:15 SE 3 10.00 Overcast BKN060 OVC090 95.9 70.3 44% 103 29.88 0.0
13 13:55 E 7 10.00 Overcast SCT065 SCT075 OVC090 96.3 71.1 44% 104 29.88 0.0
13 13:35 Calm 10.00 Overcast OVC065 94.6 69.8 44% 101 29.89 0.0
13 13:15 W 3 10.00 Partly Cloudy SCT050 94.5 70.5 46% 101 29.9 0.0
13 12:55 E 5 10.00 Partly Cloudy SCT050 SCT065 96.3 71.8 96.3 76.3 45% 105 29.9 0.0
13 12:35 SE 8 10.00 Overcast BKN050 BKN065 OVC085 95.2 71.4 46% 103 29.91 0.0
13 12:15 S 7 10.00 Mostly Cloudy SCT050 BKN085 92.1 70.3 49% 98 29.92 0.0
13 11:55 S 3 10.00 Partly Cloudy SCT043 SCT085 92.7 70.7 49% 99 29.92 0.0
13 11:35 E 5 10.00 Mostly Cloudy SCT043 SCT049 BKN085 92.7 70.5 49% 99 29.92 0.0
13 11:15 S 6 10.00 Partly Cloudy SCT040 SCT085 SCT110 91.8 72.3 53% 100 29.93 0.0
13 10:55 S 6 10.00 Mostly Cloudy SCT035 BKN085 88.2 73.9 63% 97 29.93 0.0
13 10:35 Calm 10.00 Mostly Cloudy SCT035 BKN085 87.3 73 63% 95 29.93 0.0
13 10:15 S 5 10.00 Mostly Cloudy SCT027 SCT033 BKN085 86.4 74.5 68% 95 29.93 0.0
13 09:55 S 5 10.00 Mostly Cloudy BKN027 BKN085 BKN120 86.4 74.5 68% 95 29.93 0.0
13 09:35 S 5 10.00 Mostly Cloudy BKN085 85.6 75.2 71% 95 29.94 0.0
13 09:15 S 6 10.00 Mostly Cloudy BKN085 BKN120 84.6 75.6 74% 93 29.93 0.0
13 08:55 SE 5 10.00 Mostly Cloudy BKN085 BKN120 84.6 76.5 77% 94 29.93 0.0
13 08:35 Calm 10.00 Mostly Cloudy BKN085 81.9 76.1 83% 89 29.93 0.0
13 08:15 Calm 10.00 Mostly Cloudy BKN085 80.6 76.1 86% 87 29.92 0.0
13 07:55 Calm 10.00 Partly Cloudy SCT085 79.7 75.9 88% 85 29.91 0.0
13 07:35 Calm 10.00 Partly Cloudy SCT020 SCT025 SCT085 77.7 75.2 92% 80 29.9 0.0
13 07:15 Calm 10.00 Partly Cloudy SCT020 SCT025 SCT031 77 74.5 92% 78 29.89 0.0
13 06:55 Calm 10.00 Mostly Cloudy BKN020 BKN024 76.1 74.3 79.5 75.9 94% 76 29.89 0.0
13 06:35 Calm 10.00 Partly Cloudy SCT020 SCT090 76.1 74.1 94% 76 29.88 0.0
13 06:15 Calm 10.00 Partly Cloudy SCT018 SCT090 76.1 73.9 93% 76 29.88 0.0
13 05:55 Calm 10.00 Partly Cloudy SCT017 SCT100 77 74.3 91% 78 29.87 0.0
13 05:35 Calm 10.00 Mostly Cloudy SCT017 SCT025 BKN100 77.5 74.5 90% 79 29.87 0.0
13 05:15 Calm 10.00 Partly Cloudy SCT019 SCT027 77.9 74.7 90% 80 29.87 0.0
13 04:55 Calm 10.00 Partly Cloudy SCT017 SCT024 SCT030 77.9 74.7 90% 80 29.87 0.0
13 04:35 Calm 10.00 Mostly Cloudy BKN017 BKN024 78.1 74.7 89% 81 29.87 0.0
13 04:15 Calm 10.00 Mostly Cloudy BKN019 BKN024 78.1 74.7 89% 81 29.87 0.0
13 03:55 Calm 10.00 Partly Cloudy SCT075 78.1 74.7 89% 81 29.86 0.0
13 03:35 Calm 10.00 Fair CLR 78.4 74.7 88% 81 29.86 0.0
13 03:15 Calm 10.00 Fair CLR 78.3 74.7 89% 81 29.86 0.0
13 02:55 Calm 10.00 Fair CLR 79 75.2 88% 83 29.87 0.0
13 02:35 Calm 10.00 Partly Cloudy SCT018 78.8 75.2 89% 82 29.87 0.0
13 02:15 Calm 10.00 Partly Cloudy SCT018 79.2 75.6 89% 83 29.88 0.0
13 01:55 Calm 10.00 Partly Cloudy SCT075 79.2 75.9 90% 83 29.88 0.0
13 01:35 Calm 10.00 Partly Cloudy SCT075 78.8 75.4 89% 82 29.89 0.0
13 01:15 Calm 10.00 Partly Cloudy SCT020 78.8 75.4 89% 82 29.89 0.0
13 00:55 Calm 10.00 Fair CLR 79.7 75.6 87.8 79.7 87% 84 29.89 0.0
13 00:35 Calm 10.00 Fair CLR 80.6 75.9 86% 87 29.89 0.0
13 00:15 Calm 10.00 Fair CLR 80.6 76.1 86% 87 29.9 0.0
12 23:55 Calm 10.00 Fair CLR 81.5 76.1 84% 88 29.9 0.0
12 23:35 Calm 10.00 Fair CLR 81.7 76.1 83% 89 29.9 0.0
12 23:15 E 3 10.00 Fair CLR 82.2 76.1 82% 90 29.9 0.0
12 22:55 E 3 10.00 Fair CLR 82.6 76.1 81% 90 29.9 0.0
12 22:35 E 5 10.00 Fair CLR 82.9 76.1 80% 91 29.89 0.0
12 22:15 E 6 10.00 Fair CLR 83.5 76.1 79% 92 29.88 0.0
12 21:55 E 6 10.00 Fair CLR 83.8 75.6 76% 92 29.88 0.0
12 21:35 E 6 10.00 Fair CLR 84.2 75.2 74% 92 29.88 0.0
Date Time (cdt) Wind (mph) Vis. (mi.) Weather Sky Cond. Air Dwpt Max. Min. Relative Humidity Wind Chill (°F) Heat Index (°F) altimeter (in) sea level (mb) 1 hr 3 hr 6 hr
6 hour
Temperature (ºF) Pressure Precipitation (in)